Regional Weather Roundup
Issued by NWS Charleston, WV

Home | Current Version | Previous Version | Graphics & Text | Print | Product List | Glossary On
Versions: 1 2 3 4 5 6 7 8 9 10 11 12 13 14 15 16 17 18 19 20 21 22 23 24 25 26 27
000
ASUS41 KRLX 222310
RWRRLX
West Virginia Regional Weather Roundup
National Weather Service Charleston WV
700 PM EDT SAT JUL 22 2017

Note: "fair" indicates few or no clouds below 12,000 feet with no
significant weather and/or obstructions to visibility.

WVZ003-230000-
Northern Panhandle of West Virginia

CITY           SKY/WX    TMP DP  RH WIND       PRES   REMARKS
WHEELING       CLOUDY    72  69  90 S8        29.81S
$$

WVZ009-230000-
Northwest West Virginia

CITY           SKY/WX    TMP DP  RH WIND       PRES   REMARKS
PARKERSBURG    CLOUDY    72  70  93 E5        29.85R THUNDER
$$

WVZ006-230000-
Western West Virginia

CITY           SKY/WX    TMP DP  RH WIND       PRES   REMARKS
HUNTINGTON     CLOUDY    87  73  62 W3        29.82R
$$

WVZ015-230000-
West Central West Virginia

CITY           SKY/WX    TMP DP  RH WIND       PRES   REMARKS
CHARLESTON     PTSUNNY   89  73  59 SW8       29.83R HX  97
$$

WVZ022-031-230000-
North Central West Virginia

CITY           SKY/WX    TMP DP  RH WIND       PRES   REMARKS
CLARKSBURG     TSTM      73  70  90 NW8       29.89R
MORGANTOWN     TSTM      73  71  93 S7        29.87R FOG
$$

WVZ025-035-042-045-230000-
Southern West Virginia

CITY           SKY/WX    TMP DP  RH WIND       PRES   REMARKS
BECKLEY        CLOUDY    85  67  54 W9        29.94R
LOGAN            N/A     86  73  66 CALM      29.88F
BLUEFIELD      SUNNY     85  65  51 W9        29.97F
LEWISBURG      SUNNY     86  66  50 W6        29.92S
$$

WVZ047-230000-
Northern Mountains of West Virginia

CITY           SKY/WX    TMP DP  RH WIND       PRES   REMARKS
ELKINS         LGT RAIN  71  69  93 N7        29.93R FOG
$$

WVZ052-230000-
Eastern Panhandle of West Virginia

CITY           SKY/WX    TMP DP  RH WIND       PRES   REMARKS
MARTINSBURG    CLOUDY    73  70  90 SW6       29.78F
PETERSBURG     LGT RAIN  73  72  97 CALM      29.83F
$$




USA.gov is the U.S. government's official web portal to all federal, state and local government web resources and services.